This demonstration page uses our WeatherBlox Daily Observations layout. Learn more.

Left ArrowRight Arrow

36.19886, -115.1175

Hourly Observations for December 11, 2020

Temp ( °F °C ) Dew Point ( °F °C ) Humidity (%) Winds ( mph kmh ) Pressure ( in mb ) Visibility ( mi km ) Precip ( " mm )
12:53 am 00:53 Clear 44 6.7 12 -11.1 27 27 Calm 29.95 1014 10 16.0934 0 0
1:53 am 01:53 Clear 43 6.1 13 -10.6 29 29 WNW 9 15 29.96 1015 10 16.0934 0 0
2:53 am 02:53 Clear 41 5 13 -10.6 32 32 WNW 8 13 29.96 1015 10 16.0934 0 0
3:53 am 03:53 Clear 40 4.4 15 -9.4 36 36 NW 6 9 29.97 1015 10 16.0934 0 0
4:53 am 04:53 Clear 41 5 12 -11.1 30 30 WNW 5 7 29.99 1016 10 16.0934 0 0
5:53 am 05:53 Clear 39 3.9 13 -10.6 34 34 Calm 30.02 1017 10 16.0934 0 0
6:53 am 06:53 Sunny 39 3.9 14 -10 36 36 Calm 30.05 1018 10 16.0934 0 0
7:53 am 07:53 Sunny 43 6.1 15 -9.4 32 32 WSW 5 7 30.06 1018 10 16.0934 0 0
8:53 am 08:53 Sunny 50 10 16 -8.9 26 26 Calm 30.07 1018 10 16.0934 0 0
9:53 am 09:53 Sunny 53 11.7 13 -10.6 20 20 S 3 6 30.06 1018 10 16.0934 0 0
10:53 am 10:53 Sunny 54 12.2 14 -10 20 20 S 6 9 30.04 1017 10 16.0934 0 0
11:53 am 11:53 Sunny 53 11.7 16 -8.9 23 23 E 3 6 30.03 1017 10 16.0934 0 0
12:53 pm 12:53 Sunny 54 12.2 15 -9.4 21 21 NE 5 7 30.02 1017 10 16.0934 0 0
1:53 pm 13:53 Sunny 55 12.8 19 -7.2 24 24 ENE 3 6 30.02 1017 10 16.0934 0 0
2:53 pm 14:53 Sunny 55 12.8 24 -4.4 30 30 Calm 30.01 1016 10 16.0934 0 0
3:53 pm 15:53 Sunny 56 13.3 26 -3.3 32 32 Calm 30.02 1017 10 16.0934 0 0
4:53 pm 16:53 Clear 53 11.7 27 -2.8 37 37 Calm 30.03 1017 10 16.0934 0 0
5:53 pm 17:53 Clear 50 10 23 -5 35 35 WNW 3 6 30.03 1017 10 16.0934 0 0
6:53 pm 18:53 Clear 46 7.8 22 -5.6 38 38 WNW 7 11 30.04 1017 10 16.0934 0 0
7:53 pm 19:53 Clear 45 7.2 25 -3.9 46 46 NW 5 7 30.06 1018 10 16.0934 0 0
8:53 pm 20:53 Clear 45 7.2 26 -3.3 48 48 W 5 7 30.03 1017 10 16.0934 0 0
9:53 pm 21:53 Clear 42 5.6 26 -3.3 53 53 WNW 3 6 30.03 1017 10 16.0934 0 0
10:53 pm 22:53 Clear 40 4.4 28 -2.2 63 63 NNW 6 9 30.01 1016 10 16.0934 0 0
11:53 pm 23:53 Clear 40 4.4 29 -1.7 65 65 WNW 3 6 29.99 1016 10 16.0934 0 0

Powered by AerisWeather